Harbor Springs, MI

5:37 PM EDT on October 21, 2017 (GMT -0400)
Harbor Springs

Weather History for KMGN - December, 2013

Change the Weather History Date:

Friday, December 6, 2013

  Actual Average (KPLN) Record (KPLN)
Temperature  
Mean Temperature 20 °F -  
Max Temperature 22 °F 34 °F 55 °F (1998)
Min Temperature 19 °F 19 °F -21 °F (1964)
Degree Days  
Heating Degree Days 44    
Moisture  
Dew Point 12 °F    
Average Humidity 69    
Maximum Humidity 77    
Minimum Humidity 58    
Precipitation  
Precipitation 0.00 in - - ()
Sea Level Pressure  
Sea Level Pressure 30.19 in    
Wind  
Wind Speed 12 mph (West)    
Max Wind Speed 17 mph    
Max Gust Speed 29 mph    
Visibility 9 miles    
Events Snow    
Averages and records for this station are not official NWS values.
T = Trace of Precipitation, MM = Missing Value Source: NWS Daily Summary

Daily Weather History Graph

Daily Weather History Graph

Search for Another Location

Airport or City:

Trip Planner

Search our weather history database for the weather conditions in past years. The results will help you decide how hot, cold, wet, or windy it might be!

Date:

Astronomy

Dec. 06, 2013 Rise Set
Actual Time 8:04 AM EST 4:56 PM EST
Civil Twilight 7:31 AM EST 5:30 PM EST
Nautical Twilight 6:53 AM EST 6:07 PM EST
Astronomical Twilight 6:18 AM EST 6:43 PM EST
Moon 11:03 AM EST (12/6) 9:35 PM EST (12/6)
Length of Visible Light 9h 59m
Length of Day
8h 51m
Waxing Crescent, 19% of the Moon is Illuminated
Dec 6
Waxing Crescent
Dec 9
First Quarter
Dec 17
Full
Dec 25
Last Quarter
Jan 1
New

Hourly Weather History & Observations

Time (EST) Temp. Windchill Dew Point Humidity Pressure Visibility Wind Dir Wind Speed Gust Speed Precip Events Conditions
12:15 AM 22.1 °F 8.0 °F 16.0 °F 77% 30.04 in 5.0 mi WSW 17.3 mph 28.8 mph N/A Snow Light Snow
12:35 AM 21.9 °F 9.8 °F 15.8 °F 77% 30.05 in 5.0 mi West 12.7 mph 27.6 mph N/A Snow Light Snow
12:55 AM 21.9 °F 8.2 °F 15.4 °F 76% 30.05 in 7.0 mi WSW 16.1 mph 27.6 mph N/A Snow Light Snow
1:15 AM 21.9 °F 8.7 °F 15.6 °F 77% 30.06 in 7.0 mi West 15.0 mph 27.6 mph N/A Snow Light Snow
1:35 AM 21.9 °F 8.2 °F 14.7 °F 74% 30.07 in 10.0 mi WSW 16.1 mph 25.3 mph N/A Snow Light Snow
1:55 AM 21.9 °F 8.2 °F 14.5 °F 73% 30.08 in 10.0 mi West 16.1 mph 28.8 mph N/A Snow Light Snow
2:15 AM 21.9 °F 8.2 °F 14.7 °F 74% 30.10 in 7.0 mi West 16.1 mph 28.8 mph N/A Snow Light Snow
2:35 AM 21.6 °F 7.3 °F 13.6 °F 72% 30.10 in 10.0 mi West 17.3 mph 25.3 mph N/A   Overcast
2:55 AM 21.2 °F 7.3 °F 13.5 °F 72% 30.10 in 10.0 mi West 16.1 mph 27.6 mph N/A Snow Light Snow
3:15 AM 21.0 °F 9.3 °F 13.8 °F 74% 30.09 in 7.0 mi West 11.5 mph 20.7 mph N/A Snow Light Snow
3:35 AM 21.0 °F 7.1 °F 14.0 °F 74% 30.10 in 7.0 mi West 16.1 mph 25.3 mph N/A Snow Light Snow
3:55 AM 20.8 °F 8.4 °F 12.9 °F 71% 30.09 in 10.0 mi West 12.7 mph 26.5 mph N/A Snow Light Snow
4:15 AM 20.8 °F 9.0 °F 13.6 °F 74% 30.09 in 10.0 mi West 11.5 mph 21.9 mph N/A Snow Light Snow
4:35 AM 21.0 °F 8.1 °F 14.0 °F 74% 30.10 in 10.0 mi West 13.8 mph 19.6 mph N/A Snow Light Snow
4:55 AM 20.3 °F 7.2 °F 12.0 °F 70% 30.11 in 10.0 mi West 13.8 mph 20.7 mph N/A   Overcast
5:14 AM 20.1 °F 8.1 °F 12.0 °F 71% 30.12 in 10.0 mi West 11.5 mph 24.2 mph N/A   Overcast
5:35 AM 20.3 °F 7.2 °F 12.0 °F 70% 30.13 in 10.0 mi West 13.8 mph 21.9 mph N/A Snow Light Snow
5:55 AM 20.7 °F 6.6 °F 13.3 °F 73% 30.13 in 10.0 mi West 16.1 mph 21.9 mph N/A   Overcast
6:14 AM 20.3 °F 7.7 °F 12.4 °F 71% 30.13 in 10.0 mi West 12.7 mph 19.6 mph N/A   Overcast
6:35 AM 20.3 °F 9.0 °F 11.7 °F 69% 30.14 in 10.0 mi West 10.4 mph 19.6 mph N/A   Overcast
6:55 AM 20.7 °F 8.8 °F 12.9 °F 72% 30.14 in 10.0 mi WNW 11.5 mph 17.3 mph N/A   Overcast
7:14 AM 20.3 °F 9.8 °F 11.5 °F 69% 30.14 in 10.0 mi West 9.2 mph 16.1 mph N/A   Overcast
7:35 AM 20.3 °F 7.7 °F 11.1 °F 68% 30.16 in 10.0 mi West 12.7 mph 17.3 mph N/A   Overcast
7:55 AM 20.1 °F 10.3 °F 12.7 °F 73% 30.16 in 10.0 mi West 8.1 mph 18.4 mph N/A Snow Light Snow
8:14 AM 19.9 °F 7.9 °F 12.0 °F 71% 30.17 in 10.0 mi West 11.5 mph 18.4 mph N/A   Overcast
8:35 AM 19.9 °F 7.9 °F 12.4 °F 72% 30.18 in 10.0 mi West 11.5 mph 16.1 mph N/A   Overcast
8:55 AM 19.9 °F 7.3 °F 12.0 °F 71% 30.19 in 10.0 mi West 12.7 mph 17.3 mph N/A Snow Light Snow
9:14 AM 19.9 °F 10.1 °F 12.7 °F 74% 30.19 in 7.0 mi West 8.1 mph 16.1 mph N/A Snow Light Snow
9:35 AM 20.8 °F 7.3 °F 12.4 °F 70% 30.18 in 10.0 mi West 15.0 mph 18.4 mph N/A Snow Light Snow
9:55 AM 21.0 °F 8.6 °F 12.2 °F 69% 30.19 in 10.0 mi West 12.7 mph 19.6 mph N/A   Overcast
10:14 AM 21.0 °F 9.9 °F 12.7 °F 70% 30.20 in 10.0 mi West 10.4 mph 20.7 mph N/A Snow Light Snow
10:35 AM 21.0 °F 12.4 °F 13.1 °F 71% 30.21 in 10.0 mi West 6.9 mph 18.4 mph N/A Snow Light Snow
10:55 AM 20.3 °F 10.6 °F 13.1 °F 74% 30.21 in 7.0 mi West 8.1 mph 16.1 mph N/A Snow Light Snow
11:14 AM 20.3 °F 9.0 °F 12.7 °F 73% 30.21 in 7.0 mi West 10.4 mph 18.4 mph N/A Snow Light Snow
11:35 AM 20.8 °F 9.7 °F 12.7 °F 71% 30.21 in 10.0 mi West 10.4 mph 16.1 mph N/A Snow Light Snow
11:55 AM 21.0 °F 9.9 °F 12.0 °F 68% 30.22 in 10.0 mi West 10.4 mph 17.3 mph N/A Snow Light Snow
12:14 PM 21.0 °F 9.3 °F 11.8 °F 68% 30.22 in 10.0 mi West 11.5 mph 17.3 mph N/A Snow Light Snow
12:35 PM 21.2 °F 7.8 °F 12.2 °F 68% 30.22 in 10.0 mi WNW 15.0 mph 21.9 mph N/A Snow Light Snow
12:55 PM 21.2 °F 12.6 °F 11.7 °F 67% 30.23 in 10.0 mi West 6.9 mph - N/A Snow Light Snow
1:14 PM 21.2 °F 8.9 °F 12.6 °F 69% 30.22 in 5.0 mi West 12.7 mph - N/A Snow Light Snow
1:35 PM 21.2 °F 8.9 °F 12.7 °F 70% 30.21 in 7.0 mi West 12.7 mph 17.3 mph N/A Snow Light Snow
1:55 PM 21.7 °F 10.8 °F 11.8 °F 66% 30.21 in 10.0 mi West 10.4 mph 18.4 mph N/A Snow Light Snow
2:14 PM 21.4 °F 11.9 °F 11.1 °F 65% 30.21 in 10.0 mi West 8.1 mph 18.4 mph N/A Snow Light Snow
2:35 PM 21.2 °F 10.9 °F 11.3 °F 66% 30.21 in 10.0 mi West 9.2 mph 18.4 mph N/A Snow Light Snow
2:55 PM 21.2 °F 12.6 °F 12.0 °F 68% 30.21 in 7.0 mi West 6.9 mph 19.6 mph N/A Snow Light Snow
3:14 PM 21.2 °F 9.5 °F 12.0 °F 68% 30.19 in 7.0 mi WNW 11.5 mph - N/A Snow Light Snow
3:35 PM 21.2 °F 9.5 °F 11.5 °F 66% 30.21 in 7.0 mi West 11.5 mph - N/A Snow Light Snow
3:55 PM 21.2 °F 10.9 °F 11.7 °F 67% 30.21 in 10.0 mi West 9.2 mph - N/A Snow Light Snow
4:14 PM 21.2 °F 12.6 °F 11.1 °F 65% 30.24 in 10.0 mi West 6.9 mph - N/A   Overcast
4:35 PM 21.2 °F 11.7 °F 10.4 °F 63% 30.23 in 10.0 mi West 8.1 mph 16.1 mph N/A   Overcast
4:55 PM 21.2 °F 11.7 °F 11.3 °F 66% 30.23 in 10.0 mi WNW 8.1 mph - N/A   Overcast
5:14 PM 21.2 °F 11.7 °F 11.8 °F 67% 30.24 in 7.0 mi WNW 8.1 mph - N/A Snow Light Snow
5:35 PM 21.2 °F 11.7 °F 12.7 °F 70% 30.25 in 7.0 mi WNW 8.1 mph - N/A Snow Light Snow
5:55 PM 21.2 °F 10.9 °F 12.4 °F 69% 30.25 in 10.0 mi WNW 9.2 mph - N/A Snow Light Snow
6:15 PM 21.2 °F 13.6 °F 12.2 °F 68% 30.25 in 10.0 mi West 5.8 mph - N/A Snow Light Snow
6:35 PM 21.0 °F 12.4 °F 12.4 °F 69% 30.25 in 10.0 mi WNW 6.9 mph - N/A Snow Light Snow
6:55 PM 21.0 °F 13.4 °F 12.7 °F 70% 30.26 in 7.0 mi NW 5.8 mph - N/A Snow Light Snow
7:15 PM 21.2 °F 13.6 °F 12.0 °F 68% 30.28 in 10.0 mi WNW 5.8 mph - N/A Snow Light Snow
7:35 PM 21.0 °F 11.4 °F 11.3 °F 66% 30.27 in 10.0 mi WNW 8.1 mph - N/A Snow Light Snow
7:55 PM 21.0 °F 13.4 °F 10.8 °F 65% 30.27 in 10.0 mi WNW 5.8 mph - N/A Snow Light Snow
8:15 PM 21.0 °F 12.4 °F 11.1 °F 66% 30.27 in 10.0 mi WNW 6.9 mph - N/A Snow Light Snow
8:35 PM 21.0 °F 14.6 °F 10.6 °F 64% 30.27 in 10.0 mi NW 4.6 mph - N/A Snow Light Snow
8:55 PM 21.0 °F 13.4 °F 10.0 °F 63% 30.27 in 10.0 mi West 5.8 mph - N/A   Overcast
9:15 PM 21.2 °F 11.7 °F 9.5 °F 61% 30.27 in 10.0 mi NW 8.1 mph - N/A   Overcast
9:35 PM 21.2 °F 14.9 °F 9.7 °F 61% 30.28 in 10.0 mi WNW 4.6 mph - N/A   Overcast
9:55 PM 21.2 °F 10.9 °F 10.4 °F 63% 30.28 in 10.0 mi West 9.2 mph 18.4 mph N/A   Overcast
10:15 PM 21.2 °F 13.6 °F 8.6 °F 58% 30.28 in 10.0 mi WNW 5.8 mph - N/A   Overcast
10:35 PM 21.2 °F 13.6 °F 9.1 °F 60% 30.30 in 10.0 mi West 5.8 mph - N/A   Overcast
10:55 PM 21.0 °F 9.9 °F 10.4 °F 64% 30.30 in 10.0 mi WNW 10.4 mph - N/A   Overcast
11:15 PM 20.3 °F 9.8 °F 10.2 °F 65% 30.31 in 10.0 mi West 9.2 mph - N/A   Overcast
11:35 PM 20.1 °F 9.5 °F 10.2 °F 66% 30.31 in 10.0 mi West 9.2 mph - N/A Snow Light Snow
11:54 PM 19.9 °F 7.3 °F 10.4 °F 67% 30.31 in 10.0 mi WNW 12.7 mph 17.3 mph N/A Snow Light Snow